Regional Weather Roundup
Issued by NWS

Home | Current Version | Previous Version | Graphics & Text | Print | Product List | Glossary On
Versions: 1 2 3 4 5 6 7 8 9 10 11 12 13 14 15 16 17 18 19 20 21 22 23 24 25 26 27 28 29 30 31 32 33 34 35 36 37 38 39 40 41 42 43 44 45 46 47 48 49 50
000
ASUS43 KLMK 231502
RWRKY
KENTUCKY REGIONAL WEATHER ROUNDUP
NATIONAL WEATHER SERVICE LOUISVILLE KY
1000 AM EST SUN NOV 23 2014

NOTE "FAIR" INDICATES FEW OR NO CLOUDS BELOW 12,000 FEET
WITH NO SIGNIFICANT WEATHER AND/OR OBSTRUCTIONS TO VISIBILITY.

KYZ001>023-026-027-061>063-070>075-231600-
WESTERN AND SOUTH CENTRAL KENTUCKY

CITY           SKY/WX    TMP DP  RH WIND       PRES   REMARKS
PADUCAH        CLOUDY    57  50  77 SE9       29.74F
HENDERSON      CLOUDY    52  43  71 SE12      29.81F
OWENSBORO      LGT RAIN  53  48  83 SE12      29.83F
HOPKINSVILLE   CLOUDY    57  49  74 SE10      29.80F
BOWLING GREEN  CLOUDY    60  48  64 SE10      29.85F
GLASGOW        NOT AVBL
$$

KYZ024-025-028>034-038-045-046-053-231600-
NORTH CENTRAL KENTUCKY

CITY           SKY/WX    TMP DP  RH WIND       PRES   REMARKS
LOUISVILLE/SDF PTSUNNY   57  42  57 SE13      29.88F
LOUISVILLE/LOU PTSUNNY   57  42  57 VRB6      29.89F
FORT KNOX      LGT RAIN  54  48  82 SE8       29.86F
$$

KYZ035>037-039>044-047>052-055>060-089>105-231600-
NORTHEAST KENTUCKY

CITY           SKY/WX    TMP DP  RH WIND       PRES   REMARKS
LEXINGTON      CLOUDY    54  40  59 SE10      29.94F
COVINGTON      PTSUNNY   54  39  57 SE9       29.94F
FRANKFORT      CLOUDY    55  40  56 SE9       29.92F
$$

KYZ054-064>069-076>088-106>120-231600-
SOUTHEAST KENTUCKY

CITY           SKY/WX    TMP DP  RH WIND       PRES   REMARKS
JACKSON        PTSUNNY   53  36  52 CALM      29.98F
LONDON         PTSUNNY   55  38  52 SE6       29.96F
SOMERSET       NOT AVBL
MIDDLESBORO    NOT AVBL
MONTICELLO     PTSUNNY   58  42  55 S5        29.95F
$$




USA.gov is the U.S. government's official web portal to all federal, state and local government web resources and services.